DW1980 Weather Reports


Display with metric or nautical units.
time (UTC)temp
F
wind
direction
speed
MPH
gust
MPH
rain 1hr
in
rain 24hr
in
rain mn
in
humidity
%
barometer
mb
20210517131853 63 350 1.0 6.0 0.00 0.00 0.00 61 1027.2
20210517131341 63 22 1.0 6.0 0.00 0.00 0.00 63 1027.2
20210517130851 62 333 1.0 5.0 0.00 0.00 0.00 65 1027.2
20210517130342 62 321 0.0 3.0 0.00 0.00 0.00 66 1027.2
20210517125850 61 360 1.0 3.0 0.00 0.00 0.00 67 1027.2
20210517125340 61 360 1.0 3.0 0.00 0.00 0.00 69 1027.0
20210517124851 60 360 1.0 4.0 0.00 0.00 0.00 70 1027.0
20210517124342 59 360 2.0 4.0 0.00 0.00 0.00 73 1027.0
20210517123836 58 310 0.0 4.0 0.00 0.00 0.00 78 1026.9
20210517123347 57 310 1.0 3.0 0.00 0.00 0.00 80 1026.9
20210517122853 56 310 1.0 4.0 0.00 0.00 0.00 82 1026.9
20210517122339 55 310 1.0 4.0 0.00 0.00 0.00 86 1026.9
20210517121846 54 310 2.0 4.0 0.00 0.00 0.00 94 1026.8
20210517121353 53 288 0.0 0.0 0.00 0.00 0.00 95 1026.9
20210517120841 53 288 0.0 0.0 0.00 0.00 0.00 96 1026.8
20210517120349 52 288 0.0 0.0 0.00 0.00 0.00 96 1026.8
20210517115854 52 288 0.0 0.0 0.00 0.00 0.00 96 1026.8
20210517115343 51 286 0.0 0.0 0.00 0.00 0.00 96 1026.8
20210517114851 50 286 0.0 0.0 0.00 0.00 0.00 96 1026.8
20210517114338 49 286 0.0 0.0 0.00 0.00 0.00 96 1026.7
20210517113848 49 286 0.0 0.0 0.00 0.00 0.00 95 1026.7
20210517112843 48 286 0.0 0.0 0.00 0.00 0.00 95 1026.6
20210517112353 47 286 0.0 0.0 0.00 0.00 0.00 95 1026.6
20210517111843 47 286 0.0 0.0 0.00 0.00 0.00 95 1026.6
20210517111352 46 286 0.0 0.0 0.00 0.00 0.00 95 1026.5
20210517110843 46 286 0.0 0.0 0.00 0.00 0.00 95 1026.5
20210517110353 46 286 0.0 0.0 0.00 0.00 0.00 95 1026.4
20210517105840 46 286 0.0 0.0 0.00 0.00 0.00 94 1026.4
20210517105350 45 286 0.0 0.0 0.00 0.00 0.00 94 1026.2
20210517104838 45 286 0.0 0.0 0.00 0.00 0.00 94 1026.3
20210517104347 45 286 0.0 0.0 0.00 0.00 0.00 94 1026.3
20210517103837 45 286 0.0 0.0 0.00 0.00 0.00 94 1026.2
20210517103349 45 286 0.0 0.0 0.00 0.00 0.00 94 1026.0
20210517102836 44 286 0.0 0.0 0.00 0.00 0.00 94 1026.0
20210517102346 44 286 0.0 0.0 0.00 0.00 0.00 94 1025.9
20210517101837 44 286 0.0 0.0 0.00 0.00 0.00 94 1025.8
20210517101346 44 286 0.0 0.0 0.00 0.00 0.00 94 1025.9
20210517100841 44 286 0.0 0.0 0.00 0.00 0.00 94 1025.8
20210517100350 44 286 0.0 0.0 0.00 0.00 0.00 94 1025.8
20210517095838 44 286 0.0 0.0 0.00 0.00 0.00 94 1025.7
20210517095347 44 286 0.0 0.0 0.00 0.00 0.00 94 1025.7
20210517094837 44 286 0.0 0.0 0.00 0.00 0.00 94 1025.7
20210517094347 44 286 0.0 0.0 0.00 0.00 0.00 94 1025.7
20210517093835 44 286 0.0 0.0 0.00 0.00 0.00 94 1025.6
20210517093347 44 286 0.0 0.0 0.00 0.00 0.00 93 1025.5
20210517092854 44 286 0.0 0.0 0.00 0.00 0.00 93 1025.5
20210517092343 44 286 0.0 0.0 0.00 0.00 0.00 93 1025.5
20210517091853 45 286 0.0 0.0 0.00 0.00 0.00 94 1025.6
20210517091344 45 286 0.0 0.0 0.00 0.00 0.00 94 1025.6
20210517090836 45 286 0.0 0.0 0.00 0.00 0.00 94 1025.6
20210517090347 45 286 0.0 0.0 0.00 0.00 0.00 93 1025.6
20210517085854 45 286 0.0 0.0 0.00 0.00 0.00 93 1025.7
20210517085343 45 286 0.0 0.0 0.00 0.00 0.00 93 1025.6
20210517084853 45 286 0.0 0.0 0.00 0.00 0.00 93 1025.7
20210517084344 45 286 0.0 0.0 0.00 0.00 0.00 93 1025.7
20210517083853 45 286 0.0 0.0 0.00 0.00 0.00 93 1025.6
20210517083344 45 286 0.0 0.0 0.00 0.00 0.00 93 1025.6
20210517082851 45 286 0.0 0.0 0.00 0.00 0.00 93 1025.6
20210517081844 45 286 0.0 0.0 0.00 0.00 0.00 93 1025.5
20210517081335 45 286 0.0 0.0 0.00 0.00 0.00 93 1025.5
20210517080844 46 286 0.0 0.0 0.00 0.00 0.00 93 1025.5
20210517080339 46 286 0.0 0.0 0.00 0.00 0.00 93 1025.6
20210517075844 46 286 0.0 0.0 0.00 0.00 0.00 93 1025.6
20210517075353 46 286 0.0 0.0 0.00 0.00 0.00 93 1025.5
20210517074843 46 286 0.0 0.0 0.00 0.00 0.00 93 1025.6
20210517074354 46 286 0.0 0.0 0.00 0.00 0.00 93 1025.5
20210517073843 46 286 0.0 0.0 0.00 0.00 0.00 93 1025.5
20210517073353 46 286 0.0 0.0 0.00 0.00 0.00 93 1025.6
20210517072839 46 286 0.0 0.0 0.00 0.00 0.00 93 1025.5
20210517072350 46 286 0.0 0.0 0.00 0.00 0.00 93 1025.6
20210517071839 46 286 0.0 0.0 0.00 0.00 0.00 93 1025.6
20210517071347 46 286 0.0 0.0 0.00 0.00 0.00 93 1025.5
20210517070837 46 286 0.0 0.0 0.00 0.00 0.00 93 1025.5
20210517070349 46 286 0.0 0.0 0.00 0.00 0.00 92 1025.4
20210517065854 46 286 0.0 0.0 0.00 0.00 0.00 92 1025.4
20210517065344 47 286 0.0 0.0 0.00 0.00 0.00 92 1025.4
20210517064854 47 286 0.0 0.0 0.00 0.00 0.00 92 1025.4
20210517064343 47 286 0.0 0.0 0.00 0.00 0.00 92 1025.4
20210517063853 47 286 0.0 0.0 0.00 0.00 0.00 92 1025.4
20210517063344 47 286 0.0 0.0 0.00 0.00 0.00 92 1025.4
20210517062851 47 286 0.0 0.0 0.00 0.00 0.00 92 1025.4
20210517062339 47 286 0.0 0.0 0.00 0.00 0.00 92 1025.4
20210517061849 47 286 0.0 0.0 0.00 0.00 0.00 92 1025.4
20210517061338 47 286 0.0 0.0 0.00 0.00 0.00 92 1025.4
20210517060848 47 286 0.0 0.0 0.00 0.00 0.00 92 1025.4
20210517060340 48 286 0.0 0.0 0.00 0.00 0.00 92 1025.4
20210517055848 48 286 0.0 0.0 0.00 0.00 0.00 92 1025.4
20210517055337 48 286 0.0 0.0 0.00 0.00 0.00 92 1025.4
20210517054847 48 286 0.0 0.0 0.00 0.00 0.00 91 1025.4
20210517053851 48 286 0.0 0.0 0.00 0.00 0.00 91 1025.4
20210517053342 48 286 0.0 0.0 0.00 0.00 0.00 91 1025.4
20210517052848 48 286 0.0 0.0 0.00 0.00 0.00 91 1025.4
20210517052339 49 286 0.0 0.0 0.00 0.00 0.00 91 1025.4
20210517051848 49 286 0.0 0.0 0.00 0.00 0.00 91 1025.4
20210517051338 49 286 0.0 0.0 0.00 0.00 0.00 91 1025.4
20210517050358 49 286 0.0 0.0 0.00 0.00 0.00 91 1025.4
20210517045844 49 286 0.0 0.0 0.00 0.00 0.00 90 1025.4
20210517045354 49 286 0.0 0.0 0.00 0.00 0.00 90 1025.5
20210517044846 50 286 0.0 0.0 0.00 0.00 0.00 90 1025.4
20210517044337 50 286 0.0 0.0 0.00 0.00 0.00 90 1025.4
20210517043848 50 286 327.0 327.0 0.00 0.00 0.00 90 1025.3
20210517043340 50 286 0.0 0.0 0.00 0.00 0.00 89 1025.4
20210517042846 50 286 0.0 0.0 0.00 0.00 0.00 89 1025.4
20210517042336 50 286 0.0 0.0 0.00 0.00 0.00 89 1025.4
20210517041847 51 286 0.0 0.0 0.00 0.00 0.00 89 1025.4
20210517041338 51 286 0.0 0.0 0.00 0.00 0.00 89 1025.5
20210517040848 51 286 0.0 0.0 0.00 0.00 0.00 88 1025.5
20210517040359 51 286 0.0 0.0 0.00 0.00 0.00 88 1025.5
20210517035844 51 286 0.0 0.0 0.00 0.00 0.00 88 1025.5
20210517035354 51 286 0.0 0.0 0.00 0.00 0.00 88 1025.5
20210517034843 52 286 0.0 0.0 0.00 0.00 0.00 87 1025.5
20210517034354 52 286 0.0 0.0 0.00 0.00 0.00 87 1025.5
20210517033844 52 286 0.0 0.0 0.00 0.00 0.00 87 1025.6
20210517033339 52 286 0.0 0.0 0.00 0.00 0.00 86 1025.5
20210517032845 53 286 0.0 0.0 0.00 0.00 0.00 86 1025.5
20210517032336 53 286 0.0 0.0 0.00 0.00 0.00 86 1025.6
20210517031847 53 286 0.0 0.0 0.00 0.00 0.00 85 1025.6
20210517031337 53 286 0.0 0.0 0.00 0.00 0.00 85 1025.6
20210517030848 54 286 0.0 0.0 0.00 0.00 0.00 85 1025.6
20210517030339 54 286 0.0 0.0 0.00 0.00 0.00 84 1025.6
20210517025845 54 286 0.0 0.0 0.00 0.00 0.00 84 1025.6
20210517025353 54 286 0.0 0.0 0.00 0.00 0.00 83 1025.5
20210517024843 55 286 0.0 0.0 0.00 0.00 0.00 83 1025.6
20210517024352 55 286 0.0 0.0 0.00 0.00 0.00 82 1025.6
20210517023842 55 286 0.0 0.0 0.00 0.00 0.00 82 1025.6
20210517023354 55 286 0.0 0.0 0.00 0.00 0.00 81 1025.5
20210517022841 56 286 0.0 0.0 0.00 0.00 0.00 80 1025.5
20210517022351 56 286 0.0 0.0 0.00 0.00 0.00 80 1025.5
20210517021842 56 286 0.0 0.0 0.00 0.00 0.00 80 1025.5
20210517021352 57 286 0.0 0.0 0.00 0.00 0.00 80 1025.5
20210517020841 57 286 0.0 0.0 0.00 0.00 0.00 78 1025.5
20210517020349 57 286 0.0 0.0 0.00 0.00 0.00 77 1025.4
20210517015835 58 286 0.0 0.0 0.00 0.00 0.00 77 1025.4
20210517015345 58 286 0.0 0.0 0.00 0.00 0.00 76 1025.4
20210517014836 58 286 0.0 0.0 0.00 0.00 0.00 75 1025.4
20210517014346 59 286 0.0 0.0 0.00 0.00 0.00 74 1025.3
20210517013836 59 286 0.0 0.0 0.00 0.00 0.00 74 1025.3
20210517013347 59 286 0.0 0.0 0.00 0.00 0.00 73 1025.2
20210517012853 60 286 0.0 0.0 0.00 0.00 0.00 72 1025.2
20210517012342 60 286 0.0 0.0 0.00 0.00 0.00 73 1025.1
20210517011345 61 286 0.0 0.0 0.00 0.00 0.00 71 1025.1
20210517010836 61 286 0.0 0.0 0.00 0.00 0.00 69 1025.0
20210517010348 61 286 0.0 0.0 0.00 0.00 0.00 68 1024.9
20210517005855 61 286 0.0 0.0 0.00 0.00 0.00 68 1024.9
20210517005345 61 286 0.0 0.0 0.00 0.00 0.00 68 1024.8
20210517004854 62 286 0.0 0.0 0.00 0.00 0.00 66 1024.8
20210517004343 62 286 0.0 0.0 0.00 0.00 0.00 66 1024.7
20210517003852 62 286 0.0 0.0 0.00 0.00 0.00 67 1024.7
20210517003342 62 286 0.0 0.0 0.00 0.00 0.00 65 1024.6
20210517002847 63 286 0.0 0.0 0.00 0.00 0.00 67 1024.6
20210517002337 63 286 0.0 0.0 0.00 0.00 0.00 65 1024.6
20210517001845 63 286 0.0 0.0 0.00 0.00 0.00 67 1024.6
20210517001353 64 286 0.0 0.0 0.00 0.00 0.00 63 1024.6
20210517000843 64 286 0.0 0.0 0.00 0.00 0.00 61 1024.5
20210517000353 64 286 0.0 2.0 0.00 0.00 0.00 60 1024.4
20210516235838 64 286 0.0 2.0 0.00 0.00 0.00 63 1024.4
20210516235348 64 286 0.0 4.0 0.00 0.00 0.00 62 1024.3
20210516234837 64 286 1.0 4.0 0.00 0.00 0.00 63 1024.3
20210516234347 64 348 0.0 0.0 0.00 0.00 0.00 63 1024.2
20210516233836 64 348 0.0 0.0 0.00 0.00 0.00 62 1024.3
20210516233349 64 344 0.0 0.0 0.00 0.00 0.00 67 1024.3
20210516232836 64 344 0.0 0.0 0.00 0.00 0.00 66 1024.4
20210516232346 65 344 0.0 0.0 0.00 0.00 0.00 64 1024.5
20210516231836 65 344 0.0 0.0 0.00 0.00 0.00 62 1024.7
20210516231345 65 344 0.0 0.0 0.00 0.00 0.00 62 1024.6
20210516230836 65 344 0.0 0.0 0.00 0.00 0.00 58 1024.6
20210516230347 65 344 0.0 0.0 0.00 0.00 0.00 55 1024.7
20210516225838 65 344 0.0 0.0 0.00 0.00 0.00 63 1024.8
20210516225347 66 344 0.0 0.0 0.00 0.00 0.00 58 1024.8
20210516224854 66 344 0.0 0.0 0.00 0.00 0.00 58 1024.9
20210516224343 66 344 0.0 0.0 0.00 0.00 0.00 55 1025.0
20210516223853 66 344 0.0 1.0 0.00 0.00 0.00 60 1025.1
20210516223344 66 344 0.0 1.0 0.00 0.00 0.00 54 1025.2
20210516222851 66 344 0.0 0.0 0.00 0.00 0.00 55 1025.2
20210516222342 66 344 0.0 0.0 0.00 0.00 0.00 59 1025.4
20210516221853 66 344 0.0 0.0 0.00 0.00 0.00 57 1025.5
20210516221344 67 344 0.0 0.0 0.00 0.00 0.00 58 1025.3
20210516220855 67 344 0.0 0.0 0.00 0.00 0.00 53 1025.4
20210516220346 67 344 0.0 0.0 0.00 0.00 0.00 57 1025.4
20210516215854 67 344 0.0 1.0 0.00 0.00 0.00 54 1025.5
20210516215345 67 344 0.0 2.0 0.00 0.00 0.00 52 1025.5
20210516214853 67 344 0.0 4.0 0.00 0.00 0.00 54 1025.5
20210516214344 67 344 1.0 4.0 0.00 0.00 0.00 54 1025.5
20210516213853 67 344 0.0 4.0 0.00 0.00 0.00 54 1025.6
20210516213344 67 344 1.0 5.0 0.00 0.00 0.00 53 1025.5
20210516212851 67 344 2.0 5.0 0.00 0.00 0.00 52 1025.5
20210516212340 67 336 0.0 7.0 0.00 0.00 0.00 54 1025.5
20210516211850 66 336 3.0 7.0 0.00 0.00 0.00 53 1025.5
20210516211340 66 343 0.0 1.0 0.00 0.00 0.00 55 1025.3
20210516210850 66 345 0.0 11.0 0.00 0.00 0.00 56 1025.3
20210516210340 66 11 3.0 11.0 0.00 0.00 0.00 54 1025.3
20210516205847 66 344 3.0 9.0 0.00 0.00 0.00 54 1025.3
20210516205337 66 336 2.0 9.0 0.00 0.00 0.00 56 1025.3
20210516204847 66 44 2.0 9.0 0.00 0.00 0.00 55 1025.3
20210516204341 66 355 2.0 12.0 0.00 0.00 0.00 56 1025.3
20210516203852 66 355 4.0 12.0 0.00 0.00 0.00 54 1025.3
20210516203343 65 24 5.0 12.0 0.00 0.00 0.00 54 1025.3
20210516202848 65 265 5.0 13.0 0.00 0.00 0.00 53 1025.4
20210516202339 66 294 6.0 13.0 0.00 0.00 0.00 51 1025.4
20210516201848 67 339 4.0 12.0 0.00 0.00 0.00 52 1025.5
20210516201338 67 288 3.0 9.0 0.00 0.00 0.00 49 1025.5
20210516200848 67 298 3.0 8.0 0.00 0.00 0.00 47 1025.2
20210516200340 68 285 2.0 9.0 0.00 0.00 0.00 48 1025.2
20210516195845 68 11 3.0 13.0 0.00 0.00 0.00 46 1025.0
20210516195353 68 19 5.0 13.0 0.00 0.00 0.00 46 1024.9
20210516194844 69 336 1.0 8.0 0.00 0.00 0.00 44 1025.0
20210516194354 69 14 2.0 8.0 0.00 0.00 0.00 44 1025.0
20210516193845 70 323 1.0 5.0 0.00 0.00 0.00 45 1024.8
20210516193357 70 282 2.0 10.0 0.00 0.00 0.00 43 1024.5
20210516192844 71 306 1.0 2.0 0.00 0.00 0.00 47 1024.3
20210516192355 71 305 0.0 3.0 0.00 0.00 0.00 47 1024.2
20210516191845 71 305 1.0 3.0 0.00 0.00 0.00 49 1024.2
20210516191355 71 305 0.0 5.0 0.00 0.00 0.00 39 1024.2
20210516190844 71 305 2.0 5.0 0.00 0.00 0.00 39 1024.3
20210516190355 71 296 0.0 3.0 0.00 0.00 0.00 40 1024.2
20210516185842 71 296 0.0 5.0 0.00 0.00 0.00 43 1024.1
20210516185352 72 296 2.0 14.0 0.00 0.00 0.00 39 1024.2
20210516184843 72 298 3.0 14.0 0.00 0.00 0.00 38 1024.1
20210516184354 74 294 5.0 15.0 0.00 0.00 0.00 36 1024.2
20210516183844 75 256 6.0 15.0 0.00 0.00 0.00 34 1024.0
20210516183354 76 216 1.0 5.0 0.00 0.00 0.00 34 1023.8
20210516182845 76 168 2.0 6.0 0.00 0.00 0.00 34 1023.7
20210516182354 76 240 3.0 7.0 0.00 0.00 0.00 34 1023.8
20210516181842 77 132 2.0 8.0 0.00 0.00 0.00 36 1023.8
20210516181350 76 232 327.0 327.0 0.00 0.00 0.00 37 1023.7
20210516180850 76 183 2.0 7.0 0.00 0.00 0.00 36 1023.9
20210516180339 75 240 3.0 7.0 0.00 0.00 0.00 38 1023.9
20210516175845 75 227 3.0 5.0 0.00 0.00 0.00 37 1023.9
20210516175356 75 225 2.0 8.0 0.00 0.00 0.00 41 1023.9
20210516174844 75 228 2.0 9.0 0.00 0.00 0.00 36 1024.1
20210516174354 76 218 4.0 9.0 0.00 0.00 0.00 33 1024.1
20210516173843 77 260 0.0 9.0 0.00 0.00 0.00 30 1024.1
20210516173356 78 228 3.0 10.0 0.00 0.00 0.00 34 1024.1
20210516172841 78 265 5.0 12.0 0.00 0.00 0.00 33 1024.0
20210516172351 77 281 1.0 12.0 0.00 0.00 0.00 35 1024.0
20210516171841 77 261 3.0 11.0 0.00 0.00 0.00 34 1024.1
20210516171349 77 265 3.0 10.0 0.00 0.00 0.00 32 1024.1
20210516170840 77 223 3.0 6.0 0.00 0.00 0.00 31 1024.3
20210516170351 76 231 2.0 9.0 0.00 0.00 0.00 34 1024.3
20210516165837 76 232 3.0 9.0 0.00 0.00 0.00 36 1024.2
20210516165347 75 300 1.0 8.0 0.00 0.00 0.00 39 1024.3
20210516164837 75 305 0.0 6.0 0.00 0.00 0.00 37 1024.4
20210516164347 75 305 0.0 6.0 0.00 0.00 0.00 37 1024.5
20210516163837 75 18 2.0 6.0 0.00 0.00 0.00 39 1024.6
20210516163348 75 272 2.0 16.0 0.00 0.00 0.00 41 1024.6
20210516162855 76 317 1.0 18.0 0.00 0.00 0.00 30 1024.8
20210516162346 77 275 8.0 18.0 0.00 0.00 0.00 34 1024.9
20210516161339 76 271 2.0 6.0 0.00 0.00 0.00 37 1024.9
20210516160849 76 200 1.0 7.0 0.00 0.00 0.00 34 1024.9
20210516160342 76 176 3.0 6.0 0.00 0.00 0.00 33 1025.0
20210516155848 76 227 2.0 6.0 0.00 0.00 0.00 34 1025.1
20210516155335 76 212 3.0 6.0 0.00 0.00 0.00 36 1025.1
20210516154846 76 185 2.0 5.0 0.00 0.00 0.00 34 1025.2
20210516154355 75 236 2.0 5.0 0.00 0.00 0.00 37 1025.2
20210516153843 74 225 1.0 5.0 0.00 0.00 0.00 36 1025.2
20210516153353 74 192 2.0 6.0 0.00 0.00 0.00 33 1025.3
20210516152840 75 225 3.0 6.0 0.00 0.00 0.00 35 1025.4
20210516152351 75 232 2.0 6.0 0.00 0.00 0.00 37 1025.4
20210516151842 75 234 4.0 8.0 0.00 0.00 0.00 35 1025.4
20210516151352 74 235 3.0 8.0 0.00 0.00 0.00 34 1025.4
20210516150841 74 238 1.0 4.0 0.00 0.00 0.00 37 1025.5
20210516150351 74 238 2.0 4.0 0.00 0.00 0.00 39 1025.5
20210516145836 73 239 1.0 7.0 0.00 0.00 0.00 36 1025.5
20210516145346 73 239 2.0 7.0 0.00 0.00 0.00 38 1025.6
20210516144835 73 240 1.0 4.0 0.00 0.00 0.00 38 1025.6
20210516144346 73 240 1.0 3.0 0.00 0.00 0.00 40 1025.7
20210516143836 72 240 1.0 3.0 0.00 0.00 0.00 41 1025.6
20210516143346 72 240 0.0 3.0 0.00 0.00 0.00 41 1025.7
20210516142852 72 240 1.0 4.0 0.00 0.00 0.00 44 1025.7
20210516142344 72 240 1.0 5.0 0.00 0.00 0.00 46 1025.7
20210516141854 71 244 1.0 5.0 0.00 0.00 0.00 48 1025.7
20210516141343 70 244 1.0 2.0 0.00 0.00 0.00 50 1025.6
20210516140853 70 292 0.0 5.0 0.00 0.00 0.00 48 1025.6
20210516140345 69 292 3.0 5.0 0.00 0.00 0.00 49 1025.6
20210516135837 69 286 0.0 4.0 0.00 0.00 0.00 52 1025.6
20210516135348 69 286 0.0 7.0 0.00 0.00 0.00 50 1025.6
20210516134856 68 275 2.0 7.0 0.00 0.00 0.00 54 1025.7
20210516134345 68 250 0.0 4.0 0.00 0.00 0.00 56 1025.7
20210516133851 67 244 0.0 4.0 0.00 0.00 0.00 57 1025.7
20210516133340 67 244 0.0 4.0 0.00 0.00 0.00 55 1025.8
20210516132847 66 244 1.0 3.0 0.00 0.00 0.00 58 1025.8
20210516132355 66 244 0.0 3.0 0.00 0.00 0.00 60 1025.7